Deming, NM

5:48 PM MDT on May 27, 2017 (GMT -0600)
Deming Municipal

Weather History for KDMN - November, 2012

Change the Weather History Date:

Monday, November 5, 2012

  Actual Average Record
Temperature  
Mean Temperature 57 °F 54 °F  
Max Temperature 77 °F 70 °F 82 °F (1999)
Min Temperature 37 °F 38 °F 20 °F (1956)
Degree Days  
Heating Degree Days 8    
Growing Degree Days 7 (Base 50)    
Moisture  
Dew Point 16 °F    
Average Humidity 23    
Maximum Humidity 43    
Minimum Humidity 9    
Precipitation  
Precipitation 0.00 in 0.02 in 0.27 in (2000)
Month to date precipitation 0.11  
Year to date precipitation 10.06  
Sea Level Pressure  
Sea Level Pressure 30.09 in    
Wind  
Wind Speed 4 mph (WNW)    
Max Wind Speed 13 mph    
Max Gust Speed -    
Visibility 10 miles    
Events      
T = Trace of Precipitation, MM = Missing Value Source: NWS Daily Summary

Daily Weather History Graph

Daily Weather History Graph

Search for Another Location

Airport or City:

Trip Planner

Search our weather history database for the weather conditions in past years. The results will help you decide how hot, cold, wet, or windy it might be!

Date:

Astronomy

Nov. 05, 2012 Rise Set
Actual Time 6:31 AM MST 5:16 PM MST
Civil Twilight 6:06 AM MST 5:42 PM MST
Nautical Twilight 5:37 AM MST 6:11 PM MST
Astronomical Twilight 5:08 AM MST 6:40 PM MST
Moon 10:56 PM MST (11/5) 11:52 AM MST (11/5)
Length of Visible Light 11h 36m
Length of Day
10h 45m
Waning Gibbous, 62% of the Moon is Illuminated
Nov 5
Waning Gibbous
Nov 6
Last Quarter
Nov 13
New
Nov 20
First Quarter
Nov 28
Full

Hourly Weather History & Observations

Time (MST) Temp. Windchill Dew Point Humidity Pressure Visibility Wind Dir Wind Speed Gust Speed Precip Events Conditions
12:53 AM 46.0 °F 41.9 °F 18.0 °F 33% 30.08 in 10.0 mi West 8.1 mph - N/A   Clear
1:53 AM 44.1 °F - 18.0 °F 35% 30.09 in 10.0 mi Calm Calm - N/A   Clear
2:53 AM 37.9 °F - 15.1 °F 39% 30.10 in 10.0 mi Calm Calm - N/A   Clear
3:53 AM 37.0 °F - 15.1 °F 41% 30.11 in 10.0 mi Calm Calm - N/A   Clear
4:53 AM 39.0 °F 35.7 °F 16.0 °F 39% 30.12 in 10.0 mi NNW 4.6 mph - N/A   Clear
5:53 AM 37.9 °F 33.5 °F 17.1 °F 43% 30.14 in 10.0 mi NW 5.8 mph - N/A   Clear
6:53 AM 39.9 °F 35.8 °F 16.0 °F 38% 30.17 in 10.0 mi NW 5.8 mph - N/A   Clear
7:53 AM 50.0 °F - 17.1 °F 27% 30.17 in 10.0 mi Calm Calm - N/A   Clear
8:53 AM 60.1 °F - 16.0 °F 18% 30.16 in 10.0 mi Calm Calm - N/A   Clear
9:53 AM 70.0 °F - 14.0 °F 12% 30.13 in 10.0 mi ENE 12.7 mph - N/A   Clear
10:53 AM 73.0 °F - 12.9 °F 10% 30.12 in 10.0 mi East 8.1 mph - N/A   Clear
11:53 AM 75.0 °F - 14.0 °F 10% 30.10 in 10.0 mi East 6.9 mph - N/A   Clear
12:53 PM 75.9 °F - 12.9 °F 9% 30.05 in 10.0 mi East 5.8 mph - N/A   Clear
1:53 PM 77.0 °F - 14.0 °F 9% 30.03 in 10.0 mi Calm Calm - N/A   Clear
2:53 PM 77.0 °F - 15.1 °F 10% 30.04 in 10.0 mi WSW 5.8 mph - N/A   Clear
3:53 PM 77.0 °F - 16.0 °F 10% 30.04 in 10.0 mi WSW 5.8 mph - N/A   Clear
4:53 PM 75.0 °F - 16.0 °F 11% 30.03 in 10.0 mi SSW 4.6 mph - N/A   Clear
5:53 PM 64.9 °F - 17.1 °F 16% 30.07 in 10.0 mi Calm Calm - N/A   Clear
6:53 PM 57.9 °F - 21.9 °F 25% 30.10 in 10.0 mi SSW 3.5 mph - N/A   Clear
7:53 PM 55.9 °F - 15.1 °F 20% 30.10 in 10.0 mi NNW 4.6 mph - N/A   Clear
8:53 PM 52.0 °F - 17.1 °F 25% 30.09 in 10.0 mi WNW 8.1 mph - N/A   Clear
9:53 PM 51.1 °F - 19.0 °F 28% 30.07 in 10.0 mi West 4.6 mph - N/A   Clear
10:53 PM 48.0 °F - 14.0 °F 26% 30.06 in 10.0 mi NW 5.8 mph - N/A   Clear
11:53 PM 46.9 °F - 12.9 °F 25% 30.06 in 10.0 mi NW 5.8 mph - N/A   Clear